Погода в Джикимде

Погода в Джикимде : погода сейчас, прогноз погоды и архив. Всё, что Вы хотите узнать о погоде в Джикимде!

Поиск расширенной информации на нашем сайте:

Другие новости

Новости СМИ2

Главная страница сайта

Новости сайта

03.07.2017

Напоминаем, что на нашем специализированном сайте Метеоцентр.Азия вы можете получить высокодетализированные автоматические прогнозы погоды по пунктам России, СНГ и мира в авиационном формате (включающие направление и скорость ветра, видимость, явления погоды, количество и форму облачности, нижнюю и верхнюю границу облачности).


Погода в Джикимде - сегодня

Время (UTC), дата Ветер
(°,м/с) 
Видим.   Явления Облачность Т
(°С)
Тd
(°С)
f(%) Тe
(°С)
Pmin
(гПа)
dP
(гПа)
Po
(мм)
O2
(г/м3)
Тmin Tmax R s Состояние
почвы
00 18.11.17 тихо ()   20000 м  слаб. снег  10/0 верхняя 
[Cs]
-29.1 -31.6 79 -29  1031  -1.2  755  342  -31.2    0.5  24  равномерный
сухой снег
100% 
03 18.11.17 тихо ()   20000 м  слаб. снег  10/0 верхняя 
[Cs]
-25.3 -27.8 80 -25  1029.5  -1.1  754  337           
06 18.11.17 180 (Ю) 20000 м  слаб. снег  10/0 средняя 
[As op]
-19.9 -24 70 -23  1027.6  -1.3  753  329           
09 18.11.17 тихо ()   20000 м  слаб. снег  10/0 средняя 
[As op]
-20.4 -23.7 75 -20  1026.7  -1.1  752  329           
12 18.11.17 тихо ()   20000 м  слаб. снег  10/0 средняя 
[As op]
-20.4 -23 80 -20  1025.8  -0.7  751  329    -19.8  0.8     
15 18.11.17 тихо ()   20000 м  слаб. снег  10/0 средняя 
[As op]
-19.5 -22.1 80 -20  1024.6  -1.1  751  327           
18 18.11.17 тихо ()   20000 м  слаб. снег  10/0 средняя 
[As op]
-18.6 -21.2 80 -19  1024.1  -0.5  750  326           
21 18.11.17 тихо ()   20000 м  слаб. снег  10/0 верхняя 
[Cs]
-22.1 -24 85 -22  1025.5  1.1  751  331           
00 19.11.17 тихо ()   20000 м  слаб. снег  10/0 верхняя 
[Cs]
-23.4 -24.9 87 -23  1023.8  -1.7  750  332  -23.9    21  равномерный
сухой снег
100% 
03 19.11.17 тихо ()   20000 м  слаб. снег  10/0 средняя, верхняя 
[As op|Cs]
-21.6 -24.1 80 -22  1025.7  2.1  751  330           
06 19.11.17 тихо ()   20000 м  слаб. снег  10/0 средняя 
[Ac As]
-20.6 -23.1 80 -21  1025.2  -0.5  751  329           
09 19.11.17 тихо ()   20000 м  слаб. снег  10/0 средняя 
[As op]
-22.3 -26.5 69 -22  1024.6  -0.8  750  331           
12 19.11.17 тихо ()   20000 м  слаб. снег  10/0 верхняя 
[Cs]
-23.5 -26 80 -24  1025.2  0.6  751  333    -20.6  0.9     
15 19.11.17 тихо ()   20000 м  слаб. снег  10/0 верхняя 
[Cs]
-26.3 -28.7 80 -26  1025.9  0.3  751  337           
18 19.11.17 тихо ()   20000 м  слаб. снег  10/0 верхняя 
[Cs]
-27.9 -30.3 80 -28  1026.1  0.5  751  339           
21 19.11.17 тихо ()   20000 м  слаб. снег  10/0 верхняя 
[Cs]
-25.4 -26.6 90 -25  1020.1  -5.7  747  334           
00 20.11.17 тихо ()   20000 м  слаб. снег  10/0 средняя 
[As op]
-24.8 -27.3 80 -25  1017.8  -2.3  745  332  -27.9    0.9  26  равномерный
сухой снег
100% 
03 20.11.17 тихо ()   20000 м  слаб. снег  10/0 верхняя 
[Cs]
-24.6 -27.2 79 -25  1014.7  -3  743  331           
06 20.11.17 тихо ()   20000 м  {снег}  10/0 средняя, верхняя 
[Ac As|Cs]
-24 -26.5 80 -24  1011.6  -2.9  741  329           
09 20.11.17 тихо ()   20000 м  слаб. снег  10/0 средняя 
[As op]
-23.4 -25.9 80 -23  1010.6  -0.9  740  328           
12 20.11.17 тихо ()   20000 м  слаб. снег  10/0 верхняя 
[Cs]
-25.4 -27.8 80 -25  1010.5  -0.3  740  330    -23.3  0.7     
15 20.11.17 тихо ()   20000 м  слаб. снег  10/0 верхняя 
[Cs]
-24.5 -27 80 -25  1010  -0.5  739  329           
18 20.11.17 тихо ()   20000 м  слаб. снег  10/0 верхняя 
[Cs]
-23.4 -25.9 80 -23  1009.6  -0.2  739  328           
00 21.11.17 тихо ()   20000 м  слаб. снег  10/0 верхняя 
[Cs]
-26.6 -28.4 85 -27  1014.3  2.2  742  333  -26.6    0.8  26  равномерный
сухой снег
100% 
03 21.11.17 тихо ()   20000 м  {снег}  4/0 верхняя 
[Ci fib]
-26.1 -28.6 79 -26  1015.8  1.5  744  333           
Время (UTC), дата Ветер
(°,м/с) 
Видим.   Явления Облачность Т
(°С)
Тd
(°С)
f(%) Тe
(°С)
Pmin
(гПа)
dP
(гПа)
Po
(мм)
O2
(г/м3)
Тmin Tmax R s Состояние
почвы

Для получения пояснительной информации подведите курсор к названию столбца.

ПОГОДА в Джикимде - архив

Всё, что Вы хотите узнать о погоде в Джикимде - удобно и подробно!

Выберите нужную дату (начиная с 1 января 2015* года) и нажмите кнопку "Найти".
Будут отображены архивные сводки погоды по пункту Джикимда, начиная с указанной даты.


Отображать данные в формате CSV (для использования в таблицах Excel)


Внимание! Наш архив погоды предназначен исключительно для личного некоммерческого использования в познавательных целях. Если Вам необходимы официальные справки о состоянии погоды (для производственных, юридических, коммерческих и т.п. целей), обращайтесь в органы Росгидромета.

*Примечание: данная дата относится к архиву по метеостанциям СССР (Россия, СНГ, Балтия).
Архив по метеостанциям Зарубежной Европы и Азии (кроме Китая) хранится 10 дней, по другим регионам земного шара (Китай, Африка, Америка, Австралия, Океания) - 1 день.

Джикимда - район местоположения метеостанции


Название, широта, долгота, высота метеостанции:
Джикимда 59°ш. 121.8°д. 170 м над ур. моря [Российская Федерация]

Дополнительная информация

В oтличие oт бoльшинства пoгoдных сайтoв мы публикуем пoдрoбную метеoинфoрмацию в детальнoм прoфессиoнальнoм фoрмате.

Характеристики температуры и влажнoсти вoздуха измеряются на высoте 2 м в тени вдали oт зданий и деревьев.
Скoрoсть ветра измеряется на высoте 10 м (на урoвне рoста челoвека скoрoсть ветра ниже в 1.5-2 раза). Если метеoстанция нахoдится в гoрoде или в лесу, тo скoрoсть ветра занижена на 2-4 м/с пo сравнению с oткрытым местoм. Скoрoсть ветра над акватoриями крупных рек и oзёр, а также на вершинах хoлмoв на 2-5 м/с выше, чем в oбычных услoвиях.
Атмoсфернoе давление в разных тoчках местнoсти мoжет значительнo oтличаться oт давления на метеoстанции, в зависимoсти oт услoвий рельефа (при пoдъёме на 10 м давление пoнижается примернo на 1 мм рт.ст.).